EN

Hourly Weather Abadszalok

Today, 13 June, Sunday

Time Temperature Precipitation Wind Pressure Humidity
00:00 +19°C° 0.5 mm 4 mps 751 mmHg 88%
01:00 +17°C° 0.5 mm 5 mps 750 mmHg 91%
02:00 +17°C° 0.3 mm 5 mps 750 mmHg 91%
03:00 +16°C° 0.3 mm 5 mps 751 mmHg 92%
04:00 +16°C° 0.3 mm 5 mps 751 mmHg 92%
05:00 +17°C° 0.2 mm 4 mps 752 mmHg 86%
06:00 +18°C° 0.2 mm 4 mps 752 mmHg 80%
07:00 +18°C° 0.2 mm 3 mps 753 mmHg 74%
08:00 +19°C° 0.2 mm 3 mps 754 mmHg 69%
09:00 +19°C° 0.2 mm 3 mps 754 mmHg 64%
10:00 +20°C° 0.2 mm 3 mps 754 mmHg 58%
11:00 +21°C° 0.3 mm 3 mps 754 mmHg 56%
12:00 +21°C° 0.3 mm 3 mps 754 mmHg 54%
13:00 +22°C° 0.3 mm 4 mps 754 mmHg 51%
14:00 +21°C° 0.1 mm 4 mps 754 mmHg 52%
15:00 +21°C° 0.1 mm 4 mps 754 mmHg 53%
16:00 +21°C° 0.1 mm 5 mps 755 mmHg 55%
17:00 +19°C° 0 mm 4 mps 755 mmHg 60%
18:00 +17°C° 0 mm 3 mps 755 mmHg 65%
19:00 +16°C° 0 mm 2 mps 756 mmHg 70%
20:00 +15°C° 0 mm 2 mps 756 mmHg 69%
21:00 +14°C° 0 mm 2 mps 757 mmHg 69%
22:00 +13°C° 0 mm 2 mps 757 mmHg 68%
23:00 +12°C° 0 mm 2 mps 757 mmHg 69%

Tomorrow, 14 June, Monday

Time Temperature Precipitation Wind Pressure Humidity
00:00 +12°C° 0 mm 2 mps 757 mmHg 69%
01:00 +10°C° 0 mm 2 mps 757 mmHg 70%
02:00 +10°C° 0 mm 2 mps 757 mmHg 71%
03:00 +10°C° 0 mm 2 mps 757 mmHg 72%
04:00 +10°C° 0 mm 3 mps 757 mmHg 73%
05:00 +11°C° 0 mm 3 mps 757 mmHg 69%
06:00 +13°C° 0 mm 3 mps 758 mmHg 65%
07:00 +16°C° 0 mm 3 mps 758 mmHg 61%
08:00 +18°C° 0 mm 3 mps 758 mmHg 57%
09:00 +19°C° 0 mm 3 mps 758 mmHg 53%
10:00 +20°C° 0 mm 4 mps 758 mmHg 49%
11:00 +20°C° 0 mm 3 mps 757 mmHg 50%
12:00 +20°C° 0 mm 3 mps 757 mmHg 52%
13:00 +20°C° 0 mm 3 mps 757 mmHg 53%
14:00 +20°C° 0.1 mm 3 mps 757 mmHg 55%
15:00 +19°C° 0.1 mm 2 mps 756 mmHg 57%
16:00 +19°C° 0.1 mm 2 mps 756 mmHg 59%
17:00 +18°C° 0 mm 2 mps 756 mmHg 62%
18:00 +17°C° 0 mm 2 mps 756 mmHg 64%
19:00 +16°C° 0 mm 2 mps 756 mmHg 67%
20:00 +16°C° 0 mm 2 mps 757 mmHg 66%
21:00 +15°C° 0 mm 1 mps 757 mmHg 66%
22:00 +14°C° 0 mm 1 mps 757 mmHg 65%
23:00 +13°C° 0 mm 1 mps 757 mmHg 67%

Day after tomorrow, 15 June, Tuesday

Time Temperature Precipitation Wind Pressure Humidity
00:00 +13°C° 0 mm 2 mps 757 mmHg 68%
01:00 +12°C° 0 mm 2 mps 757 mmHg 70%
02:00 +12°C° 0 mm 2 mps 757 mmHg 73%
03:00 +12°C° 0 mm 2 mps 757 mmHg 75%
04:00 +12°C° 0 mm 2 mps 757 mmHg 78%
05:00 +14°C° 0 mm 2 mps 757 mmHg 74%
06:00 +15°C° 0 mm 2 mps 757 mmHg 69%
07:00 +17°C° 0 mm 2 mps 757 mmHg 64%
08:00 +19°C° 0 mm 2 mps 757 mmHg 59%
09:00 +20°C° 0 mm 3 mps 757 mmHg 54%
10:00 +22°C° 0 mm 3 mps 757 mmHg 49%
11:00 +22°C° 0 mm 3 mps 757 mmHg 48%
12:00 +24°C° 0 mm 3 mps 756 mmHg 47%
13:00 +25°C° 0 mm 3 mps 756 mmHg 46%
14:00 +25°C° 0 mm 2 mps 756 mmHg 46%
15:00 +25°C° 0 mm 2 mps 756 mmHg 47%
16:00 +25°C° 0 mm 2 mps 755 mmHg 48%
17:00 +24°C° 0 mm 2 mps 755 mmHg 54%
18:00 +23°C° 0 mm 2 mps 755 mmHg 60%
19:00 +21°C° 0 mm 1 mps 755 mmHg 67%
20:00 +19°C° 0 mm 2 mps 755 mmHg 68%
21:00 +19°C° 0 mm 2 mps 755 mmHg 70%
22:00 +18°C° 0 mm 2 mps 755 mmHg 71%
23:00 +17°C° 0 mm 2 mps 755 mmHg 73%

16 June, Wednesday

Time Temperature Precipitation Wind Pressure Humidity
00:00 +17°C° 0 mm 2 mps 755 mmHg 74%
01:00 +17°C° 0 mm 2 mps 755 mmHg 76%
02:00 +16°C° 0 mm 2 mps 755 mmHg 77%
03:00 +16°C° 0 mm 2 mps 755 mmHg 78%
04:00 +15°C° 0 mm 2 mps 755 mmHg 79%
05:00 +17°C° 0 mm 2 mps 755 mmHg 75%
06:00 +18°C° 0 mm 2 mps 756 mmHg 71%
07:00 +20°C° 0 mm 2 mps 756 mmHg 67%
08:00 +21°C° 0 mm 2 mps 756 mmHg 62%
09:00 +24°C° 0 mm 3 mps 756 mmHg 56%
10:00 +25°C° 0 mm 3 mps 756 mmHg 51%
11:00 +26°C° 0 mm 3 mps 756 mmHg 49%
12:00 +27°C° 0 mm 3 mps 756 mmHg 47%
13:00 +28°C° 0 mm 3 mps 755 mmHg 46%
14:00 +28°C° 0 mm 3 mps 755 mmHg 47%
15:00 +28°C° 0 mm 3 mps 755 mmHg 47%
16:00 +28°C° 0 mm 3 mps 755 mmHg 48%
17:00 +26°C° 0 mm 2 mps 755 mmHg 55%
18:00 +25°C° 0 mm 2 mps 755 mmHg 62%
19:00 +24°C° 0 mm 1 mps 755 mmHg 69%
20:00 +21°C° 0.1 mm 2 mps 755 mmHg 74%
21:00 +20°C° 0.1 mm 2 mps 756 mmHg 79%
22:00 +19°C° 0.1 mm 3 mps 756 mmHg 85%
23:00 +18°C° 0 mm 3 mps 756 mmHg 86%

17 June, Thursday

Time Temperature Precipitation Wind Pressure Humidity
00:00 +18°C° 0 mm 3 mps 756 mmHg 87%
01:00 +17°C° 0 mm 3 mps 756 mmHg 88%
02:00 +17°C° 0 mm 3 mps 756 mmHg 88%
03:00 +16°C° 0 mm 3 mps 756 mmHg 89%
04:00 +16°C° 0 mm 2 mps 756 mmHg 90%
05:00 +18°C° 0 mm 3 mps 756 mmHg 84%
06:00 +19°C° 0 mm 3 mps 756 mmHg 78%
07:00 +21°C° 0 mm 3 mps 757 mmHg 72%
08:00 +22°C° 0 mm 3 mps 757 mmHg 67%
09:00 +25°C° 0 mm 3 mps 757 mmHg 61%
10:00 +26°C° 0 mm 3 mps 757 mmHg 56%
11:00 +27°C° 0 mm 3 mps 757 mmHg 53%
12:00 +28°C° 0 mm 3 mps 756 mmHg 51%
13:00 +29°C° 0 mm 3 mps 756 mmHg 49%
14:00 +29°C° 0 mm 3 mps 756 mmHg 48%
15:00 +29°C° 0 mm 2 mps 756 mmHg 48%
16:00 +29°C° 0 mm 2 mps 756 mmHg 48%
17:00 +28°C° 0 mm 2 mps 756 mmHg 54%
18:00 +26°C° 0 mm 2 mps 756 mmHg 61%
19:00 +25°C° 0 mm 2 mps 755 mmHg 67%
20:00 +24°C° 0 mm 2 mps 756 mmHg 70%
21:00 +23°C° 0 mm 2 mps 756 mmHg 72%
22:00 +20°C° 0 mm 2 mps 756 mmHg 74%
23:00 +20°C° 0 mm 2 mps 756 mmHg 75%

18 June, Friday

Time Temperature Precipitation Wind Pressure Humidity
00:00 +20°C° 0 mm 2 mps 756 mmHg 77%
01:00 +19°C° 0 mm 2 mps 756 mmHg 79%
02:00 +19°C° 0 mm 2 mps 756 mmHg 80%
03:00 +18°C° 0 mm 2 mps 756 mmHg 81%
04:00 +18°C° 0 mm 2 mps 756 mmHg 82%
05:00 +19°C° 0 mm 3 mps 756 mmHg 78%
06:00 +21°C° 0 mm 3 mps 756 mmHg 74%
07:00 +22°C° 0 mm 3 mps 756 mmHg 70%
08:00 +25°C° 0 mm 3 mps 756 mmHg 65%
09:00 +27°C° 0 mm 3 mps 756 mmHg 61%
10:00 +28°C° 0 mm 3 mps 756 mmHg 57%
11:00 +29°C° 0 mm 3 mps 755 mmHg 54%
12:00 +30°C° 0 mm 3 mps 755 mmHg 51%
13:00 +30°C° 0 mm 2 mps 755 mmHg 48%
14:00 +31°C° 0 mm 2 mps 755 mmHg 47%
15:00 +31°C° 0 mm 2 mps 754 mmHg 47%
16:00 +31°C° 0 mm 2 mps 754 mmHg 46%
17:00 +29°C° 0 mm 2 mps 754 mmHg 53%
18:00 +27°C° 0 mm 2 mps 754 mmHg 60%
19:00 +26°C° 0 mm 1 mps 754 mmHg 66%
20:00 +25°C° 0 mm 1 mps 754 mmHg 68%
21:00 +24°C° 0 mm 1 mps 754 mmHg 70%
22:00 +23°C° 0 mm 1 mps 754 mmHg 72%
23:00 +21°C° 0 mm 2 mps 754 mmHg 74%
Show more